FENGYUN 1C DEB

Satellite information

Favourite Embed

Satellite Type and Status

DEBRISIN ORBIT

Key statistics

Satellite FENGYUN 1C DEB at a glance.

Uptime

9663

Days in orbit

Revolutions

≈ 14.3

Per day

Orbit

SSO

Sun Synchronous Orbit

Inclination

99.4

Latest

Satellite identification and parameters

Extended collection of information and parameters for FENGYUN 1C DEB.

Object identification

Identified? True

Debris? True

Object name: FENGYUN 1C DEB

International designator: 1999-025CMZ

Object number (NORAD): 31948

Object ID (CCSDS): 31948

Country: PEOPLES REPUBLIC OF CHINA (PRC)

Current information (Y/N): Y

RCS size: SMALL

Orbital parameters

Period: 100.859 minutes

Inclination: 99.3973 deg

SMA: 7177.452 km

Apoapsis: 818.494 km

Periapsis: 780.141 km

RAAN: 351.1601 deg

Eccentricy: 0.0026718

Argument of periapsis: 168.0755 deg

Mean anomaly: 345.4731 deg

Mean motion: 14.27733905 rev/day

Mean motion (dot): 0.00005624 rev/day2

B* drag term: 0.0022888 1/REarth

Two-line elements (TLE)

Creation date: Oct. 22, 2025, 12:16 a.m.

Reference frame: TEME

Reference center: EARTH

Epoch: Oct. 21, 2025, 3:17 p.m. UTC

TLE line 0: 0 FENGYUN 1C DEB

TLE line 1: 1 31948U 99025CMZ 25294.63744022 .00005624 00000-0 22888-2 0 9997

TLE line 2: 2 31948 99.3973 351.1601 0026718 168.0755 345.4731 14.27733905942845

Live tracking on map

Real-time ground track for satellite FENGYUN 1C DEB.

In-orbit conjunctions

A list of the most updated potential collisions computed for object FENGYUN 1C DEB.

Target Orbit TCA Probability of collision Miss distance Type
COSMOS 676 LEO 2025-09-21 15:49:09 0.000188278 745.0 (m) PAYLOAD
COSMOS 2251 DEB LEO 2024-11-13 04:11:15 0.0001524587 639.0 (m) DEBRIS

Associated space launch

Chinese polar orbiting meteorological satellite

FENGYUN 1C DEB was lifted into orbit during the mission ‘Long March 4B | Feng Yun 1C’, on board a Long March 4B space rocket.

The launch took place on May 10, 1999, 1:33 a.m. from Launch Complex 7.

For more information about the launch, click the button.

Launch to space Long March 4B | Feng Yun 1C
Long March 4B | Feng Yun 1C

Agency: N/A

Status: Launch Successful

Launch date: May 10, 1999, 1:33 a.m. UTC

Rocket: Long March 4B

Launch pad: Launch Complex 7

Location: Taiyuan Satellite Launch Center, People's Republic of China

...

Latest news about this satellite

There are no fresh news available about this satellite. Check back as we update our databases every day.


Newsletter sign-up

Weekly statistics, charts and insights to help you stay on top of the space industry.